Weather History for Hollywood, FL

Change the Weather History Date:

Friday, March 1, 2013

  Actual Average (KFLL) Record (KFLL)
Temperature  
Mean Temperature 62 °F 72 °F  
Max Temperature 64 °F 79 °F 87 °F (1929)
Min Temperature 59 °F 65 °F 40 °F (1920)
Degree Days  
Heating Degree Days 4 1  
Month to date heating degree days 1  
Since 1 July heating degree days 103  
Cooling Degree Days 0 7  
Month to date cooling degree days 7  
Year to date cooling degree days 363  
Growing Degree Days 12 (Base 50)    
Moisture  
Dew Point 50 °F    
Average Humidity 64    
Maximum Humidity 81    
Minimum Humidity 54    
Precipitation  
Precipitation 0.00 in 0.07 in 1.95 in (1980)
Month to date precipitation 0.07  
Year to date precipitation 6.66  
Snow  
Snow 0.00 in - - ()
Month to date snowfall  
Since 1 July snowfall  
Snow Depth -    
Sea Level Pressure  
Sea Level Pressure 29.98 in    
Wind  
Wind Speed 7 mph (NW)    
Max Wind Speed 15 mph    
Max Gust Speed -    
Visibility 10 miles    
Events Rain    
T = Trace of Precipitation, MM = Missing Value Source: NWS Daily Summary

Daily Weather History Graph

Daily Weather History Graph

Search for Another Location

Airport:

Trip Planner

Search our weather history database for the weather conditions in past years. The results will help you decide how hot, cold, wet, or windy it might be!

Date:

Astronomy

Mar. 01, 2013 Rise Set
Actual Time 6:44 AM EST 6:22 PM EST
Civil Twilight 6:20 AM EST 6:45 PM EST
Nautical Twilight 5:54 AM EST 7:12 PM EST
Astronomical Twilight 5:27 AM EST 7:39 PM EST
Moon 10:22 PM EST (3/1) 8:58 AM EST (3/1)
Length of Visible Light 12h 24m
Length of Day
11h 38m
Waning Gibbous, 83% of the Moon is Illuminated
Mar 1
Waning Gibbous
Mar 4
Last Quarter
Mar 11
New
Mar 19
First Quarter
Mar 27
Full

Hourly Weather History & Observations

Time (EST) Temp. Dew Point Humidity Pressure Visibility Wind Dir Wind Speed Gust Speed Precip Events Conditions
1:53 AM 64.0 °F 53.1 °F 67% 29.95 in 10.0 mi WNW 3.5 mph - N/A   Overcast
2:53 AM 64.0 °F 52.0 °F 65% 29.94 in 10.0 mi WNW 5.8 mph - N/A   Overcast
3:53 AM 63.0 °F 53.1 °F 70% 29.96 in 10.0 mi WNW 6.9 mph - N/A   Overcast
4:53 AM 62.1 °F 54.0 °F 75% 29.96 in 10.0 mi WNW 5.8 mph - 0.00 in Rain Light Rain
5:53 AM 61.0 °F 55.0 °F 81% 29.96 in 10.0 mi NW 5.8 mph - 0.00 in   Overcast
6:53 AM 62.1 °F 55.0 °F 78% 29.97 in 10.0 mi NW 3.5 mph - N/A   Overcast
7:53 AM 62.1 °F 54.0 °F 75% 29.99 in 10.0 mi NNW 10.4 mph - N/A   Mostly Cloudy
8:53 AM 63.0 °F 51.1 °F 65% 29.99 in 10.0 mi NNW 8.1 mph - N/A   Overcast
9:53 AM 63.0 °F 50.0 °F 63% 30.00 in 10.0 mi NW 9.2 mph - N/A   Overcast
10:53 AM 64.0 °F 48.9 °F 58% 30.02 in 10.0 mi NNW 15.0 mph - N/A   Overcast
11:53 AM 64.9 °F 50.0 °F 58% 30.00 in 10.0 mi NNW 9.2 mph - N/A   Overcast
12:53 PM 64.9 °F 48.9 °F 56% 29.98 in 10.0 mi NW 10.4 mph - N/A   Overcast
1:53 PM 64.9 °F 48.0 °F 54% 29.95 in 10.0 mi NW 10.4 mph - N/A   Overcast
2:53 PM 64.0 °F 50.0 °F 60% 29.95 in 10.0 mi NW 5.8 mph - N/A   Overcast
3:53 PM 64.0 °F 51.1 °F 63% 29.93 in 10.0 mi NW 3.5 mph - 0.00 in   Overcast
4:53 PM 62.1 °F 52.0 °F 70% 29.95 in 10.0 mi North 9.2 mph - 0.00 in Rain Light Rain
5:53 PM 62.1 °F 46.9 °F 58% 29.97 in 10.0 mi NNW 10.4 mph - 0.00 in   Overcast
6:53 PM 62.1 °F 46.0 °F 56% 29.99 in 10.0 mi NNW 8.1 mph - N/A   Overcast
7:53 PM 62.1 °F 46.9 °F 58% 30.00 in 10.0 mi NW 10.4 mph - N/A   Overcast
9:53 PM 59.0 °F 46.9 °F 64% 30.01 in 10.0 mi NW 8.1 mph - 0.00 in   Overcast
10:53 PM 59.0 °F 45.0 °F 60% 30.01 in 10.0 mi NW 12.7 mph - N/A   Mostly Cloudy
11:53 PM 59.0 °F 45.0 °F 60% 30.01 in 10.0 mi WNW 8.1 mph - N/A   Overcast